Theta_e
287 289 289 289 291 291 289 290 287 290 290 294 295 296 299 302 304 304 304 305 307 307 308 309 309 310 310 310 309 308 307 306 307 308 306 304 303 302 303 303 302 304 304 305
283 289 290 288 291 292 292 292 291 291 289 295 298 295 298 302 304 303 303 305 306 307 308 309 309 309 308 308 307 307 306 304 304 303 302 301 300 300 300 300 300 301 300 301
277 286 286 284 289 291 291 292 292 288 293 297 294 296 300 302 305 304 304 305 306 307 308 309 308 309 308 307 307 305 304 303 303 302 301 301 301 300 297 297 297 298 300 301
276 280 273 287 294 294 293 294 295 294 295 298 298 299 301 305 306 305 305 305 306 308 308 309 309 310 309 307 306 305 304 303 303 302 301 301 299 297 294 293 293 294 297 298
272 276 281 285 291 291 289 291 297 296 297 299 299 297 296 306 308 308 307 307 307 308 309 309 309 309 308 306 306 305 304 303 303 302 300 297 294 292 292 293 292 291 292 294
272 270 271 285 292 294 295 287 297 297 297 297 297 291 296 304 308 308 309 308 307 308 307 307 309 308 306 305 305 305 305 305 303 301 296 294 293 292 291 291 291 292 290 290
278 273 278 289 291 294 284 286 297 298 298 299 295 300 301 303 308 309 309 308 309 307 305 306 308 308 306 306 305 307 306 302 300 297 296 294 291 290 290 290 289 288 288 287
279 276 274 289 291 285 290 295 295 297 299 299 299 300 299 304 308 308 308 308 308 306 305 306 308 308 306 306 308 305 302 300 298 295 297 294 291 288 289 288 286 285 285 286
280 280 288 291 289 292 295 296 296 297 299 299 299 300 299 303 307 308 309 308 308 307 305 306 307 308 305 305 303 302 300 297 296 294 293 291 290 288 288 287 286 285 286 285
282 286 288 290 292 293 297 297 299 298 298 299 299 300 299 304 307 308 309 308 309 307 305 305 307 308 307 303 303 301 298 295 293 293 290 289 291 290 289 288 286 287 286 285
283 286 290 291 293 294 296 298 299 300 301 301 300 300 299 303 307 309 309 309 309 307 306 306 307 306 304 303 302 299 297 295 294 293 291 289 290 290 290 289 291 288 287 287
280 287 288 290 294 297 298 298 300 300 300 302 300 301 300 305 309 309 309 309 307 308 307 306 306 304 302 302 301 298 295 294 293 293 290 290 289 288 295 295 297 296 295 292
287 291 291 292 295 298 298 299 301 302 302 301 301 302 302 306 309 311 310 307 307 307 306 305 303 301 300 300 300 297 295 294 294 293 290 288 288 288 287 294 300 299 298 298
292 291 289 291 292 297 299 300 302 302 303 301 301 303 304 307 309 309 308 308 308 307 305 304 302 300 299 299 298 296 295 298 293 292 291 289 289 288 289 289 288 289 299 298
291 292 291 294 294 296 300 299 300 301 301 300 301 303 305 306 308 309 309 308 307 306 305 305 302 299 299 298 297 295 294 293 292 291 290 290 288 288 287 287 287 287 289 296
290 291 292 292 294 297 299 298 298 298 300 300 301 302 306 309 309 309 309 308 305 304 305 305 303 300 299 298 296 294 294 296 293 291 291 289 288 288 287 286 286 286 286 287
288 288 290 290 294 295 297 299 299 301 298 299 302 303 305 307 307 308 308 308 308 306 306 305 304 300 299 298 296 295 295 294 295 291 291 290 289 288 288 286 286 285 285 288
292 293 292 294 297 297 297 299 300 302 298 299 302 303 305 306 306 307 308 308 307 305 306 306 303 301 299 298 298 296 295 294 293 292 291 290 289 289 288 287 286 285 284 289
292 292 293 294 296 297 297 299 302 302 301 300 302 303 304 306 307 307 308 306 305 304 304 305 302 301 299 299 299 297 296 294 293 292 292 293 291 289 288 287 287 286 286 288
293 293 295 294 295 296 296 300 302 302 300 299 302 302 302 302 305 306 307 306 307 308 306 304 302 301 300 300 301 297 296 294 293 292 292 291 289 288 288 289 287 287 287 288
292 293 293 293 294 295 296 297 300 301 302 299 301 302 302 303 304 305 304 304 303 304 305 302 304 301 300 300 299 297 295 294 293 292 292 290 290 288 288 287 287 287 287 288
292 293 293 292 293 294 295 297 298 300 301 298 299 301 302 301 302 303 304 305 301 303 304 304 304 302 301 301 299 296 295 294 293 292 291 290 289 288 287 286 286 286 287 287
290 290 291 291 293 294 295 296 297 298 299 300 298 299 302 302 302 301 299 299 303 303 304 305 304 303 302 300 298 296 295 294 292 292 291 290 289 288 287 286 286 286 286 286
289 289 290 291 292 293 293 295 297 297 299 299 299 300 301 299 298 300 301 301 302 302 304 303 303 303 303 299 297 296 295 293 292 291 290 292 288 288 286 286 285 285 286 286
288 288 289 289 290 291 293 294 296 296 297 297 299 299 300 302 301 298 300 301 301 302 301 303 303 303 299 298 297 295 295 293 291 291 290 289 288 287 286 286 285 285 286 286
287 288 289 289 290 291 292 294 293 295 296 296 296 297 297 299 299 300 300 300 301 300 300 301 302 300 298 297 296 295 293 292 292 291 290 289 288 287 286 285 286 287 286 285
288 291 288 289 290 291 292 293 293 293 296 296 296 297 297 298 299 298 299 299 299 299 300 300 300 298 296 296 295 293 293 292 292 291 290 289 288 287 287 287 287 286 285 285
Wind_Speed
9 13 16 18 21 18 16 17 16 16 16 14 8 11 15 12 13 15 15 14 13 12 10 9 7 7 6 6 6 6 8 7 8 7 7 7 9 8 9 9 8 8 9 8
17 13 15 19 19 21 23 20 21 13 8 5 10 4 9 16 18 18 18 16 15 14 12 11 10 9 8 7 7 7 8 7 8 7 7 8 7 8 9 8 8 9 8 8
16 5 12 9 21 17 11 10 10 15 14 10 4 9 15 16 20 21 20 18 18 17 14 12 11 10 10 9 9 7 8 7 7 8 8 8 8 9 8 8 7 8 8 8
4 1 11 9 17 12 13 12 10 8 8 10 14 16 14 17 22 20 19 19 18 16 14 13 12 11 10 10 10 9 9 8 7 8 8 7 8 9 8 6 7 6 8 7
3 7 13 15 8 6 5 18 12 13 16 17 8 3 5 16 19 23 24 19 17 16 16 14 14 13 11 10 9 10 10 9 9 10 8 9 9 7 6 8 5 5 5 7
2 6 10 4 4 5 5 14 7 8 11 12 7 6 8 13 15 15 17 17 18 18 13 15 14 15 13 12 10 10 10 10 9 9 9 8 9 7 3 5 5 5 6 6
11 8 9 7 3 8 4 2 2 4 9 10 11 13 10 15 16 19 19 20 18 19 17 16 15 15 14 13 12 11 9 9 9 8 9 8 7 4 6 6 6 6 6 5
8 12 19 7 2 7 5 8 10 8 6 10 8 8 6 15 19 21 22 20 20 19 17 16 16 16 15 14 12 11 11 10 9 9 8 7 8 5 6 7 7 6 6 5
7 5 5 14 14 17 16 16 11 12 15 8 12 8 9 12 18 21 25 22 20 19 19 16 16 15 16 12 12 12 11 10 9 8 8 8 9 7 6 6 5 4 4 4
4 10 17 23 24 20 13 15 17 14 11 18 18 10 8 11 16 18 19 21 20 19 19 18 17 15 14 14 14 14 12 11 9 9 9 7 7 7 7 6 6 5 4 4
6 11 9 15 19 20 20 18 20 12 11 18 16 13 8 12 16 18 20 19 20 20 18 19 18 15 14 16 17 14 12 11 10 8 10 8 7 8 8 5 9 9 6 6
12 17 12 15 16 12 14 9 6 10 12 19 10 14 8 12 16 18 19 19 18 18 18 18 18 16 15 16 17 16 13 10 9 8 6 6 6 4 7 11 14 13 15 11
20 17 16 19 21 17 17 17 16 16 17 16 15 8 10 12 16 20 19 21 21 21 19 19 17 16 15 16 17 16 14 13 10 10 8 7 6 6 6 4 13 15 17 15
15 10 13 17 13 10 9 15 15 19 19 8 9 6 7 13 13 19 21 20 19 19 19 19 17 16 16 16 16 14 12 17 10 9 8 7 6 6 6 7 5 4 11 12
20 17 21 21 18 15 13 12 15 12 5 11 5 6 9 13 17 18 16 17 18 19 18 18 17 15 16 16 16 14 11 9 8 7 7 9 7 6 5 5 5 4 2 5
13 12 15 17 13 8 11 14 13 1 6 14 7 7 9 14 14 15 17 19 20 17 18 18 17 15 16 16 14 11 11 16 12 9 9 8 8 8 7 6 5 5 4 4
13 16 11 9 9 5 11 11 14 7 4 6 8 7 8 11 12 14 16 18 17 18 18 18 16 16 17 16 16 10 8 10 15 8 9 9 8 9 7 7 7 5 4 5
17 17 9 8 7 5 10 8 5 5 1 8 5 8 11 14 16 15 15 14 13 13 15 15 15 17 17 16 14 11 10 10 10 10 8 9 8 8 8 8 7 7 4 7
18 17 14 10 8 8 10 7 7 8 4 3 6 11 12 12 13 14 14 15 15 16 13 13 20 20 16 17 16 10 10 11 9 8 8 12 9 8 8 7 7 7 8 8
13 14 12 9 9 11 10 6 7 7 5 4 4 6 8 8 12 13 15 17 16 10 14 15 18 15 15 17 18 10 11 11 11 9 8 8 8 8 7 9 9 8 8 8
7 7 10 10 10 12 12 6 6 5 9 1 6 8 11 11 12 13 12 9 8 14 16 21 14 10 10 14 13 10 10 10 10 10 9 8 8 7 8 8 8 8 7 7
5 4 4 3 8 10 9 6 6 5 5 5 5 6 8 9 10 10 8 10 6 19 13 12 11 17 13 21 10 10 10 10 9 8 8 8 8 8 8 8 8 7 7 7
3 2 2 2 2 5 6 6 7 7 7 9 6 7 10 8 9 10 8 7 10 13 11 10 14 23 25 12 10 10 11 11 9 9 8 8 8 8 8 8 7 7 7 7
3 5 4 3 3 3 5 6 6 7 9 9 7 7 8 6 2 2 6 10 13 16 11 11 18 24 23 9 10 10 10 9 8 8 8 11 7 7 7 8 7 6 6 8
3 4 3 4 4 4 5 5 6 6 7 5 6 6 7 4 5 5 6 8 21 15 9 19 24 26 10 9 10 10 9 9 8 9 8 8 8 8 7 7 7 8 7 7
3 4 4 5 5 4 4 3 3 3 3 3 2 2 2 4 6 8 7 11 12 13 10 12 13 12 9 9 10 10 9 9 10 8 10 8 8 8 8 8 8 8 7 7
5 4 3 4 4 4 4 4 3 5 5 5 4 5 4 5 7 8 10 10 10 9 10 11 12 12 10 10 10 9 9 8 10 9 9 9 8 8 8 8 8 7 7 7
Wind_Direction
288 301 301 281 271 207 207 216 212 242 236 244 221 198 196 177 165 167 172 175 174 165 163 160 158 147 143 140 134 129 117 115 105 98 95 95 90 79 86 86 82 85 86 85
281 304 313 297 290 230 222 217 232 235 241 262 242 132 158 181 175 179 178 180 177 170 166 164 167 158 149 150 147 144 132 123 115 108 101 91 86 85 83 79 80 89 89 94
264 265 332 276 254 241 219 223 222 225 246 251 237 200 198 188 185 185 182 178 178 176 173 166 168 163 158 152 148 144 135 132 128 122 111 106 107 98 86 83 77 73 77 87
288 350 254 250 283 272 245 242 226 248 252 249 235 231 203 196 184 186 180 177 178 172 172 165 163 165 154 148 151 150 146 144 137 123 116 115 98 95 91 86 97 102 104 102
200 230 266 290 267 268 220 261 233 230 246 248 232 107 236 193 190 187 182 176 175 172 172 159 162 160 155 155 156 156 151 150 143 140 126 122 119 121 117 110 89 76 82 92
276 233 240 171 281 352 304 276 223 202 223 234 153 200 231 181 188 183 175 168 167 167 163 162 162 159 157 162 165 161 157 153 140 135 133 133 134 129 98 103 112 108 91 83
221 246 286 288 219 3 251 241 304 283 263 248 208 223 213 177 181 174 168 166 161 161 164 167 163 161 163 164 174 164 150 140 137 138 137 138 126 118 125 114 99 90 92 79
222 228 240 346 323 184 258 311 352 341 325 338 320 289 207 186 174 164 163 161 163 162 166 164 167 165 165 171 164 150 146 145 143 143 144 137 130 122 117 115 111 112 104 76
193 225 262 296 275 281 297 306 305 312 309 325 317 296 215 186 174 168 162 163 164 163 160 164 170 176 168 164 149 148 146 144 149 143 138 143 139 131 118 112 114 113 115 123
266 249 250 256 275 279 269 282 284 289 292 308 297 284 224 192 171 166 163 163 162 159 163 166 173 177 173 155 154 152 151 149 150 150 144 141 143 146 143 144 139 140 137 136
269 282 282 266 259 272 279 269 270 271 292 302 290 280 216 191 176 169 164 160 163 163 167 166 169 171 159 159 157 157 154 156 158 163 162 156 163 163 161 170 165 160 166 160
253 259 255 278 288 297 290 281 279 273 288 284 272 274 210 191 175 165 162 160 161 163 161 160 163 165 162 160 161 156 156 161 165 159 160 159 152 107 173 165 176 181 170 168
251 260 256 264 268 276 258 264 256 250 252 269 289 250 198 178 174 167 161 159 163 163 159 157 159 162 162 162 160 163 165 166 163 156 159 154 149 150 144 177 179 179 181 189
247 246 269 262 267 271 279 277 287 240 243 233 254 244 191 175 160 164 164 166 156 154 156 160 160 166 164 161 161 162 162 167 165 161 158 154 152 145 148 159 163 175 190 180
252 249 258 265 274 275 279 281 309 233 252 317 261 210 167 163 166 168 156 157 151 152 157 161 162 165 162 162 163 158 155 160 153 150 147 147 137 144 148 146 156 155 123 161
245 243 253 259 256 274 293 301 304 277 51 280 245 196 179 167 158 154 151 152 150 163 164 166 167 161 159 159 156 155 159 161 154 149 148 145 154 161 161 158 158 166 146 156
236 254 247 261 261 280 286 299 276 192 188 257 223 161 136 140 141 149 156 161 159 162 165 166 163 156 159 163 161 159 153 154 157 150 159 164 167 172 169 167 170 165 163 165
239 240 236 249 217 249 273 270 291 192 219 297 173 154 149 155 158 157 155 152 143 150 164 165 153 158 163 163 161 156 156 159 159 164 162 165 171 167 168 172 167 161 153 177
228 234 234 226 217 239 274 252 260 274 66 292 188 178 167 164 159 154 151 148 153 157 170 157 155 156 163 165 156 154 156 157 158 164 165 162 165 165 165 165 164 159 163 172
215 217 220 225 230 236 251 239 239 283 340 301 195 146 148 148 153 152 159 171 175 165 150 151 157 160 161 164 153 155 154 158 159 159 157 161 164 164 163 163 161 161 166 174
231 231 227 220 216 230 242 212 222 222 286 315 207 186 170 159 159 156 157 164 177 147 151 154 161 159 157 157 156 149 151 155 158 160 165 165 158 158 158 162 163 162 163 168
41 41 33 220 205 224 233 210 200 173 226 275 251 162 148 151 153 166 179 175 146 150 148 163 163 160 159 157 156 149 150 157 157 153 155 158 161 160 161 158 161 159 160 161
32 52 80 348 311 247 255 223 191 193 169 266 223 186 176 172 166 158 169 177 153 162 155 164 160 158 155 156 153 150 152 156 160 159 159 159 160 158 157 158 156 154 155 156
11 5 343 323 323 285 277 264 235 209 196 221 206 181 162 145 128 135 114 138 143 151 154 152 156 156 154 151 151 150 153 155 154 149 146 146 147 143 145 149 151 151 147 148
356 326 331 336 313 269 263 259 239 221 200 208 222 189 164 173 153 167 141 156 157 155 146 148 153 155 146 151 152 152 155 153 152 146 147 145 150 148 146 147 151 151 148 152
351 325 310 283 274 283 278 290 241 226 188 187 224 189 187 127 123 137 141 144 155 143 142 151 155 154 149 150 150 149 146 142 146 145 143 145 146 142 146 148 149 150 151 152
307 317 295 297 272 268 263 248 235 240 197 176 187 162 180 144 142 140 140 147 150 150 146 152 152 147 144 146 144 142 139 139 142 141 141 141 145 147 147 152 145 142 142 145